TIANWANG 1B (TW-1B)
1 40927U 15051C   18172.81613075  .00008243  00000-0  15988-3 0  9995
2 40927  97.1910 214.9599 0007755 273.2249 174.8244 15.47898043153933
TIANWANG 1A (TW-1A)
1 40928U 15051D   18172.82228763  .00002473  00000-0  66598-4 0  9996
2 40928  97.1846 206.7190 0010337 311.3302 134.3422 15.38740885153492
LAPAN A2
1 40931U 15052B   18172.38124582  .00000637  00000-0 -39861-6 0  9992
2 40931   5.9990 120.2077 0013548  64.9707 295.1853 14.76577781147620
LQSAT
1 40958U 15057A   18173.19212811  .00000023  00000-0  11382-4 0  9993
2 40958  97.9397 246.2233 0017523 324.8880  35.1179 14.73035273145589
CHUBUSAT 2
1 41338U 16012B   18172.70576100 +.00000300 +00000-0 +16759-4 0  9999
2 41338 031.0034 284.9411 0013703 117.9196 242.2828 14.99987629128518
CHUBUSAT 3
1 41339U 16012C   18172.71894771  .00000301  00000-0  16759-4 0  9999
2 41339  31.0115 283.4433 0013427 125.3979 234.7921 15.00174937128504
OUFTI-1
1 41458U 16025C   18172.89360780 +.00001872 +00000-0 +10015-3 0  9994
2 41458 098.1373 235.9958 0171431 131.6360 229.9674 15.04687014118154
E-STAR-2
1 41459U 16025D   18172.76830779 +.00002053 +00000-0 +10988-3 0  9992
2 41459 098.1378 235.7003 0172387 132.8469 228.7384 15.04419629118119
AAUSAT 4
1 41460U 16025E   18172.80901467  .00002282  00000-0  12068-3 0  9997
2 41460  98.1261 236.2505 0163052 128.5652 233.0259 15.05849146118189
NUSAT 1
1 41557U 16033B   18172.82194504  .00001317  00000-0  50814-4 0  9991
2 41557  97.4377 257.0295 0015578 142.0248 218.2093 15.28017408114869
BEESAT 4
1 41619U 16040W   18172.86797239 +.00001297 +00000-0 +59578-4 0  9999
2 41619 097.4146 235.9501 0010827 206.2013 153.8677 15.22138600098801
PRATHAM
1 41783U 16059A   18172.71993617 +.00000049 +00000-0 +18754-4 0  9998
2 41783 098.1171 234.2068 0034984 081.9753 278.5416 14.62927915092626
ALSAT 1N
1 41789U 16059G   18172.74180754  .00000058  00000-0  20144-4 0  9993
2 41789  98.1186 235.4602 0029716  74.0988 286.3479 14.64160408 92685
NAYIF 1
1 42017U 17008BX  18172.88801315 +.00001394 +00000-0 +59684-4 0  9996
2 42017 097.4478 237.9175 0006704 019.0923 341.0564 15.24460836074788
LILACSAT-1
1 42725U 98067ME  18172.94986704 +.00020650 +00000-0 +17547-3 0  9996
2 42725 051.6364 333.8095 0004266 247.3282 112.7265 15.69585433061284
MAX VALIER SAT
1 42778U 17036P   18172.91647581 +.00000956 +00000-0 +45712-4 0  9998
2 42778 097.4029 232.5510 0014109 058.2655 301.9953 15.21321187055220
